Regional Weather Roundup
Issued by NWS Grand Forks, ND

Home | Current Version | Previous Version | Graphics & Text | Print | Product List | Glossary Off
Versions: 1 2 3 4 5 6 7 8 9 10 11 12 13 14 15 16 17 18 19 20 21 22 23 24 25 26 27 28 29 30 31 32 33 34 35 36 37 38 39 40 41 42 43 44 45 46 47 48 49 50

000
ASUS43 KFGF 191910
RWRFGF
PRAIRIE TO PINES  WEATHER ROUNDUP
NATIONAL WEATHER SERVICE EASTERN NORTH DAKOTA/GRAND FORKS ND
200 PM CDT SUN APR 19 2015

 **SATELLITE DATA USED TO AUGMENT SKY COVER AT AUTOMATED STATIONS**
 *****  WEATHER ACROSS EASTERN NORTH DAKOTA  *****

CITY           SKY/WX    TMP DP  RH WIND       PRES   REMARKS
GRAND FORKS    LGT RAIN  44  40  85 N24G32    29.70R
GRAND FRKS AFB LGT RAIN  42  39  87 NW25G32   29.72R
GRAND FRKS NWS   N/A     41 N/A N/A N24         N/A
DEVILS LAKE    CLOUDY    43  37  81 NW17      29.77F
FARGO          LGT RAIN  47  40  76 NW18G33   29.71S
WAHPETON ARPT  CLOUDY    46  37  71 NW23G31   29.73S
$$

 ***** WEATHER ACROSS CENTRAL AND WESTERN NORTH DAKOTA  *****

CITY           SKY/WX    TMP DP  RH WIND       PRES   REMARKS
BISMARCK       MOSUNNY   47  41  80 NW22G31   29.88F
MINOT          CLOUDY    45  36  70 NW23G35   29.88F
JAMESTOWN      CLOUDY    50  36  58 N36G46    29.76S
MINOT AFB      CLOUDY    45  39  80 NW29G35   29.87S
GARRISON         N/A     46  36  68 NW29G41   29.89S
WILLISTON      CLOUDY    47  26  44 NW24G33   30.02F
DICKINSON      PTSUNNY   42  31  64 NW28G37   29.96S
HETTINGER      CLOUDY    44  28  53 NW26G39   29.98F
$$

 *****  OTHER AIRPORT OBSERVATIONS IN OUR AREA  *****

CITY           SKY/WX    TMP DP  RH WIND       PRES   REMARKS
WALHALLA       LGT RAIN  39  39 100 NW14G26   29.75S
GRAFTON AIRPOR CLOUDY    39  39 100 NW22G32   29.73R
VALLEY CITY AR LGT RAIN  46  41  81 NW25G31   29.75S
CANDO          MOCLDY    43  39  87 N18G28    29.79R
CAVALIER APRT  CLOUDY    39  37  93 NW15G23   29.73S FOG
GWINNER        MOCLDY    50  43  76 N16G31    29.76S
ROLLA          MOCLDY    41  41 100 NW25G32   29.79S
 ***** THE ABOVE OBSERVATIONS ARE NON NWS ARE NOT QUALITY
       CONTROLLED AND MAY MIS-REPORT RAIN FOR SNOW...
$$

  *****  WEATHER ACROSS NORTHERN MINNESOTA  *****

CITY           SKY/WX    TMP DP  RH WIND       PRES   REMARKS
FLAG ISLAND    DRIZZLE   39  37  93 CALM      29.60F
WARROAD        LGT RAIN  39  36  87 N5        29.60F
ROSEAU         LGT RAIN  46  41  81 NW6       29.60S
HALLOCK        LGT RAIN  39  37  93 NW26G36   29.68S
THF RVR FALLS  CLOUDY    45  41  87 NW18      29.65R
BAUDETTE       CLOUDY    44  40  85 SW6       29.60F
WASKISH        CLOUDY    45  41  87 CALM      29.61R
CROOKSTON      LGT RAIN  43  43 100 N29G35    29.69R
STEPHEN NDAWN    N/A     41  39  93 NW26        N/A
GREENBUSH NDAW   N/A     43  41  93 NW21        N/A
$$
  *****  WEATHER ACROSS CENTRAL AND WEST MINNESOTA  *****

CITY           SKY/WX    TMP DP  RH WIND       PRES   REMARKS
FOSSTON        DRIZZLE   43  41  93 W15G24    29.64F
BEMIDJI        RAIN      46  44  93 SW5       29.60F
PARK RAPIDS    CLOUDY    48  43  82 W21G28    29.62S
ELBOW LAKE     CLOUDY    46  41  83 NW18G32   29.71S
WADENA         CLOUDY    45  43  93 NW15G23   29.65R
DETROIT LAKES  LGT RAIN  43  43 100 NW18G24   29.67F
MOORHEAD       LGT RAIN  46  39  76 NW21G26   29.71S
FERGUS FALLS   CLOUDY    46  43  87 NW22G33   29.71S
MORRIS MN      CLOUDY    48  41  76 NW23G30   29.72R
STAPLES        RAIN      46  45  93 W20G25    29.64R
$$
  *****  WEATHER ELSEWHERE ACROSS MINNESOTA  *****

CITY           SKY/WX    TMP DP  RH WIND       PRES   REMARKS
DULUTH         LGT RAIN  39  38  96 SE8       29.61S VSB 1/2
INTRNTL FALLS  CLOUDY    43  40  89 SW6       29.60S
ELY            DRIZZLE   39  37  93 SE5       29.62F
CLOQUET        CLOUDY    41  39  93 E5        29.61F FOG
WHEATON        CLOUDY    46  37  71 NW21      29.75S
BRAINERD       CLOUDY    48  44  86 W14       29.62R
HIBBING        CLOUDY    43  40  89 SE7       29.61F FOG
ALEXANDRIA     CLOUDY    45  41  86 NW18G26   29.70R FOG
SAINT CLOUD    CLOUDY    54  45  71 NW15      29.63S
MINNEAPOLIS    CLOUDY    59  53  80 W14       29.61F
$$

  *****  WEATHER ACROSS SOUTH DAKOTA  *****

CITY           SKY/WX    TMP DP  RH WIND       PRES   REMARKS
SIOUX FALLS    CLOUDY    50  40  68 NW22G28   29.77F
BROOKINGS      CLOUDY    48  37  66 NW18G26   29.78F
WATERTOWN      PTSUNNY   50  36  58 NW24G31   29.76F
HURON          PTSUNNY   54  30  40 NW31G37   29.83S
SISSETON         N/A     53  38  56 N26       29.72F
ABERDEEN       CLOUDY    53  30  41 NW24      29.81F
MITCHELL       CLOUDY    55  31  39 NW29      29.84S
PIERRE         CLOUDY    51  30  44 NW29G39   29.90S
MOBRIDGE       CLOUDY    48  34  58 NW23G32   29.87S
RAPID CITY     MOSUNNY   51  23  33 NW40G51   30.00F
$$

  *****  SOME WEATHER IN NEARBY STATES *****

CITY           SKY/WX    TMP DP  RH WIND       PRES   REMARKS
GLASGOW MT     MOSUNNY   52  19  27 N22G33    30.13F
GREAT FALLS MT CLOUDY    51  21  30 VRB6      30.18F
CHEYENNE WY    CLOUDY    38  23  55 N20G33    30.09F
SCOTTSBLUFF NE MOSUNNY   50  22  33 NW26G36   30.07F
OMAHA NE       LGT RAIN  51  48  89 NW24G30   29.71F
DES MOINES IA  CLOUDY    64  57  78 NW9       29.57F
DAVENPORT IA   SUNNY     75  46  35 MISG      29.56F
CHICAGO IL     PTSUNNY   67  38  34 E13       29.63F
EAU CLAIRE WI  CLOUDY    56  42  59 SE10      29.64F
LA CROSSE WI   LGT RAIN  55  46  71 NW5       29.64F
$$

  *****  SOME NATIONAL WEATHER *****

CITY           SKY/WX    TMP DP  RH WIND       PRES   REMARKS
LA GUARDIA NY  PTSUNNY   57  34  41 S15G25    30.21F
RALEIGH NC     LGT RAIN  67  64  90 E10       29.94F
ATLANTA GA     LGT RAIN  68  65  90 S10G17    29.79F
NEW ORLEANS LA MOSUNNY   84  59  42 W14       29.80F
OKLAHOMA CITY  PTSUNNY   67  49  52 NW12      29.75S
ALBUQUERQUE NM MOSUNNY   62  19  19 NW7       30.06F
SALT LAKE CITY MOSUNNY   62  30  29 W8        30.05F
LOS ANGELES CA MOSUNNY   63  54  72 W10       29.95F
BOISE ID       SUNNY     64  27  24 SW10      30.11F
SEATTLE WA     MOSUNNY   62  43  49 N6        30.16F
$$

*** WEATHER ACROSS MANITOBA...SASKATCHEWAN AND ONTARIO ***
                ***ONTARIO***

CITY           SKY/WX    TMP DP  RH WIND       PRES   REMARKS
GERALDTON      CLOUDY    45  25  45 E15G21    29.89F
THUNDER BAY    LGT RAIN  36  34  93 E20G29    29.77F
SIOUX LOOKOUT  LGT RAIN  36  34  93 SE8G17    29.65F
TORONTO        PTSUNNY   50  28  43 E18G26    30.07F
BIG TROUT LK   CLOUDY    41  30  65 SE15G25   29.87S HAZE
PICKLE LAKE    FLURRIES  34  32  93 E16G23    29.77F WCI  23
DRYDEN         CLOUDY    37  37 100 E8G17     29.62F
KENORA         CLOUDY    39  37  93 SE7       29.61R
$$
                *** MANITOBA***

CITY           SKY/WX    TMP DP  RH WIND       PRES   REMARKS
BRANDON        CLOUDY    45  34  65 N24G32    29.82R
DAUPHIN        CLOUDY    39  30  70 N24G31    29.86S
ISLAND LAKE    CLOUDY    41  36  81 NE7       29.71F
PILOT MOUND      N/A     43  37  81 NW15G23     N/A
THE PAS        CLOUDY    32  27  80 NW16G30   29.99F WCI  21
THOMPSON       LGT SNOW  27  23  86 NE17G26   29.99F WCI  14
WINNIPEG       LGT RAIN  41  37  87 NW24G30   29.71S
LYNN LAKE      CLOUDY    28  25  86 N15       30.15F WCI  17
CHURCHILL      MOSUNNY   23  19  86 NE8       30.27F WCI  14
GILLAM         SNOW      25  21  86 NE16G25   30.02F VSB 1/2 WCI  12
$$
                ***SASKATCHEWAN***

CITY           SKY/WX    TMP DP  RH WIND       PRES   REMARKS
ESTEVAN        HVY RAIN  45  28  53 NW25G36   29.97F
KINDERSLEY     PTSUNNY   50  25  37 N13       30.17F
LLOYDMINSTER   PTSUNNY   50  23  34 N13       30.16F
PRINCE ALBERT  NOT AVBL
REGINA         NOT AVBL
YORKTON        CLOUDY    41  30  65 N29G38    29.95R
N. BATTLEFORD  MOSUNNY   52  23  32 N15G25    30.16F
LA RONGE       MOSUNNY   43  21  42 N9        30.16F
SASKATOON      MOSUNNY   50  14  23 N15G28    30.13F
SWIFT CURRENT  CLOUDY    46  21  36 N22G28    30.13F
$$
NOTE: THESE ARE AUTOMATED STATIONS WITH LIMITED QUALITY CONTROL
      "FAIR" INDICATES FEW OR NO CLOUDS BELOW 12,000 FEET WITH NO
      SIGNIFICANT WEATHER AND/OR OBSTRUCTIONS TO VISIBILITY.
      SKY/WX - SKY CONDITION AND SIGNIFICANT WEATHER.
      TMP - AIR TEMPERATURE.    DP   - DEWPOINT TEMPERATURE.
      RH  - RELATIVE HUMIDITY.  PRES - PRESSURE.
      HX  - HEAT INDEX.         WCI  - WIND CHILL INDEX.
$



USA.gov is the U.S. government's official web portal to all federal, state and local government web resources and services.